Hourly Weather Suhaya Rechka

Today, 22 January, Friday

Time Temperature Precipitation Wind Pressure Humidity
00:00 -9°C° 0.1 mm 4 mps 760 mmHg 88%
01:00 -9°C° 0 mm 4 mps 760 mmHg 87%
02:00 -10°C° 0 mm 4 mps 760 mmHg 87%
03:00 -10°C° 0 mm 4 mps 760 mmHg 86%
04:00 -10°C° 0 mm 4 mps 760 mmHg 87%
05:00 -12°C° 0 mm 5 mps 760 mmHg 88%
06:00 -12°C° 0 mm 5 mps 760 mmHg 89%
07:00 -12°C° 0 mm 5 mps 761 mmHg 85%
08:00 -13°C° 0 mm 5 mps 761 mmHg 81%
09:00 -13°C° 0 mm 5 mps 762 mmHg 77%
10:00 -12°C° 0 mm 5 mps 762 mmHg 72%
11:00 -11°C° 0 mm 5 mps 763 mmHg 67%
12:00 -8°C° 0 mm 5 mps 763 mmHg 61%
13:00 -8°C° 0 mm 5 mps 763 mmHg 61%
14:00 -8°C° 0 mm 5 mps 763 mmHg 61%
15:00 -8°C° 0 mm 5 mps 763 mmHg 61%
16:00 -10°C° 0 mm 5 mps 763 mmHg 66%
17:00 -10°C° 0 mm 4 mps 764 mmHg 72%
18:00 -12°C° 0 mm 4 mps 764 mmHg 78%
19:00 -12°C° 0 mm 4 mps 765 mmHg 77%
20:00 -12°C° 0 mm 4 mps 765 mmHg 77%
21:00 -13°C° 0 mm 3 mps 765 mmHg 77%
22:00 -13°C° 0 mm 3 mps 766 mmHg 77%
23:00 -13°C° 0 mm 3 mps 766 mmHg 77%

Tomorrow, 23 January, Saturday

Time Temperature Precipitation Wind Pressure Humidity
00:00 -13°C° 0 mm 3 mps 766 mmHg 77%
01:00 -14°C° 0 mm 3 mps 766 mmHg 75%
02:00 -14°C° 0 mm 3 mps 766 mmHg 74%
03:00 -14°C° 0 mm 3 mps 766 mmHg 73%
04:00 -14°C° 0 mm 3 mps 766 mmHg 73%
05:00 -14°C° 0 mm 3 mps 766 mmHg 72%
06:00 -15°C° 0 mm 3 mps 766 mmHg 72%
07:00 -15°C° 0 mm 4 mps 766 mmHg 70%
08:00 -15°C° 0 mm 4 mps 767 mmHg 68%
09:00 -14°C° 0 mm 4 mps 767 mmHg 66%
10:00 -12°C° 0 mm 3 mps 767 mmHg 60%
11:00 -9°C° 0 mm 3 mps 767 mmHg 55%
12:00 -8°C° 0 mm 3 mps 766 mmHg 49%
13:00 -7°C° 0 mm 3 mps 766 mmHg 49%
14:00 -7°C° 0 mm 3 mps 766 mmHg 48%
15:00 -6°C° 0 mm 3 mps 765 mmHg 48%
16:00 -7°C° 0 mm 2 mps 766 mmHg 55%
17:00 -8°C° 0 mm 2 mps 766 mmHg 61%
18:00 -9°C° 0 mm 2 mps 766 mmHg 68%
19:00 -9°C° 0 mm 2 mps 766 mmHg 69%
20:00 -10°C° 0 mm 2 mps 766 mmHg 70%
21:00 -10°C° 0 mm 2 mps 766 mmHg 72%
22:00 -10°C° 0 mm 2 mps 766 mmHg 73%
23:00 -10°C° 0 mm 1 mps 766 mmHg 74%

Day after tomorrow, 24 January, Sunday

Time Temperature Precipitation Wind Pressure Humidity
00:00 -10°C° 0 mm 1 mps 767 mmHg 75%
01:00 -10°C° 0 mm 1 mps 767 mmHg 75%
02:00 -10°C° 0 mm 1 mps 767 mmHg 76%
03:00 -10°C° 0 mm 1 mps 767 mmHg 77%
04:00 -10°C° 0 mm 1 mps 766 mmHg 77%
05:00 -10°C° 0 mm 1 mps 766 mmHg 78%
06:00 -10°C° 0 mm 0 mps 766 mmHg 79%
07:00 -10°C° 0 mm 0 mps 766 mmHg 76%
08:00 -9°C° 0 mm 1 mps 766 mmHg 74%
09:00 -8°C° 0 mm 1 mps 766 mmHg 72%
10:00 -7°C° 0 mm 1 mps 766 mmHg 66%
11:00 -4°C° 0 mm 1 mps 766 mmHg 61%
12:00 -2°C° 0 mm 1 mps 766 mmHg 56%
13:00 -2°C° 0 mm 1 mps 766 mmHg 57%
14:00 -1°C° 0 mm 1 mps 765 mmHg 58%
15:00 -2°C° 0 mm 0 mps 765 mmHg 59%
16:00 -3°C° 0 mm 0 mps 766 mmHg 66%
17:00 -5°C° 0 mm 0 mps 766 mmHg 72%
18:00 -6°C° 0 mm 0 mps 766 mmHg 78%
19:00 -6°C° 0 mm 0 mps 766 mmHg 78%
20:00 -6°C° 0 mm 1 mps 767 mmHg 79%
21:00 -6°C° 0 mm 1 mps 767 mmHg 79%
22:00 -6°C° 0 mm 1 mps 767 mmHg 79%
23:00 -6°C° 0 mm 1 mps 767 mmHg 80%

25 January, Monday

Time Temperature Precipitation Wind Pressure Humidity
00:00 -6°C° 0 mm 1 mps 767 mmHg 80%
01:00 -7°C° 0 mm 1 mps 767 mmHg 80%
02:00 -7°C° 0 mm 1 mps 767 mmHg 80%
03:00 -8°C° 0 mm 2 mps 767 mmHg 79%
04:00 -8°C° 0 mm 2 mps 767 mmHg 79%
05:00 -8°C° 0 mm 2 mps 767 mmHg 79%
06:00 -8°C° 0 mm 2 mps 767 mmHg 78%
07:00 -8°C° 0 mm 2 mps 767 mmHg 76%
08:00 -7°C° 0 mm 2 mps 768 mmHg 73%
09:00 -7°C° 0 mm 2 mps 768 mmHg 70%
10:00 -5°C° 0 mm 2 mps 767 mmHg 66%
11:00 -4°C° 0 mm 2 mps 767 mmHg 61%
12:00 0°C° 0 mm 1 mps 767 mmHg 57%
13:00 0°C° 0 mm 1 mps 766 mmHg 59%
14:00 0°C° 0 mm 1 mps 766 mmHg 61%
15:00 0°C° 0 mm 1 mps 765 mmHg 63%
16:00 -1°C° 0 mm 1 mps 765 mmHg 69%
17:00 -2°C° 0 mm 1 mps 765 mmHg 75%
18:00 -3°C° 0 mm 1 mps 764 mmHg 81%
19:00 -3°C° 0 mm 1 mps 764 mmHg 85%
20:00 -4°C° 0 mm 2 mps 764 mmHg 88%
21:00 -4°C° 0 mm 2 mps 764 mmHg 91%
22:00 -4°C° 0 mm 3 mps 764 mmHg 93%
23:00 -4°C° 0 mm 3 mps 763 mmHg 95%

26 January, Tuesday

Time Temperature Precipitation Wind Pressure Humidity
00:00 -3°C° 0 mm 4 mps 763 mmHg 97%
01:00 -3°C° 0.2 mm 4 mps 762 mmHg 97%
02:00 -2°C° 0.2 mm 5 mps 762 mmHg 97%
03:00 -2°C° 0.2 mm 5 mps 761 mmHg 98%
04:00 -2°C° 0.7 mm 4 mps 761 mmHg 98%
05:00 -2°C° 0.7 mm 4 mps 760 mmHg 98%
06:00 -1°C° 0.7 mm 3 mps 759 mmHg 98%
07:00 -1°C° 0.2 mm 3 mps 759 mmHg 98%
08:00 -1°C° 0.2 mm 3 mps 759 mmHg 98%
09:00 +1°C° 0.2 mm 2 mps 759 mmHg 97%
10:00 +1°C° 0.1 mm 3 mps 758 mmHg 91%
11:00 +2°C° 0.1 mm 3 mps 758 mmHg 85%
12:00 +3°C° 0.1 mm 3 mps 757 mmHg 78%
13:00 +4°C° 0 mm 2 mps 757 mmHg 73%
14:00 +4°C° 0 mm 2 mps 757 mmHg 68%
15:00 +5°C° 0 mm 2 mps 756 mmHg 63%
16:00 +3°C° 0 mm 2 mps 757 mmHg 61%
17:00 0°C° 0 mm 3 mps 757 mmHg 59%
18:00 -2°C° 0 mm 3 mps 757 mmHg 57%
19:00 -3°C° 0 mm 4 mps 758 mmHg 54%
20:00 -4°C° 0 mm 4 mps 758 mmHg 51%
21:00 -6°C° 0 mm 5 mps 758 mmHg 48%
22:00 -7°C° 0 mm 5 mps 759 mmHg 50%
23:00 -8°C° 0 mm 5 mps 759 mmHg 53%

27 January, Wednesday

Time Temperature Precipitation Wind Pressure Humidity
00:00 -10°C° 0 mm 5 mps 759 mmHg 55%
01:00 -9°C° 0 mm 4 mps 760 mmHg 55%
02:00 -10°C° 0 mm 4 mps 760 mmHg 56%
03:00 -11°C° 0 mm 4 mps 760 mmHg 56%
04:00 -10°C° 0 mm 3 mps 760 mmHg 55%
05:00 -10°C° 0 mm 3 mps 760 mmHg 55%
06:00 -10°C° 0 mm 2 mps 760 mmHg 54%
07:00 -10°C° 0 mm 2 mps 761 mmHg 53%
08:00 -9°C° 0 mm 2 mps 761 mmHg 51%
09:00 -10°C° 0 mm 3 mps 762 mmHg 50%
10:00 -10°C° 0 mm 4 mps 761 mmHg 45%
11:00 -10°C° 0 mm 5 mps 761 mmHg 40%
12:00 -9°C° 0 mm 6 mps 761 mmHg 35%
13:00 -9°C° 0 mm 6 mps 761 mmHg 35%
14:00 -9°C° 0 mm 7 mps 761 mmHg 34%
15:00 -8°C° 0 mm 7 mps 761 mmHg 34%
16:00 -9°C° 0 mm 6 mps 761 mmHg 38%
17:00 -11°C° 0 mm 6 mps 762 mmHg 42%
18:00 -12°C° 0 mm 6 mps 762 mmHg 46%
19:00 -12°C° 0 mm 6 mps 763 mmHg 49%
20:00 -14°C° 0 mm 6 mps 763 mmHg 51%
21:00 -14°C° 0 mm 5 mps 763 mmHg 53%
22:00 -14°C° 0 mm 5 mps 763 mmHg 54%
23:00 -15°C° 0 mm 5 mps 764 mmHg 55%
Show more